Hlavní strana
METAR-TAF:

METAR-TAF

Letiště :

Indianapolis, Indiana, Spojené státy americké

zeměpisná šířka: 39-50-37N, zeměpisná délka: 085-53-49W, výška: 263 m

Aktuální stav počasí

Zpráva byla vytvořena před 11 minutami, v 07:16 UTC
Severní vítr 12 kt
Teplota 1°C
Vlhkost vzduchu 100%
Tlak 1023 hPa
Viditelnost: 11.3 km
Zataženo ve výšce 600 ft

METAR: KMQJ 130716Z AUTO 35012KT 7SM OVC006 01/01 A3021 RMK AO1

Čas: 00:27 (07:27 UTC)


TAF: chybějící

Stav a předpovědi počasí z více než 4 000 letišť (zprávy METAR a TAF).

Červené a žluté tečky na mapě představují dostupné meteorologické stanice.

Když kurzor umístíte na tečku, zobrazí se název stanice.

Pak kliknutím zobrazíte stav a předpověď počasí.

Chcete-li změnit mapu, kliknutím na zelené tlačítko se znaménkem +mapu přiblížíte, kliknutím na zelené tlačítko se znaménkem – mapu oddálíte a kliknutím na zelené šipky přejdete na sousední mapy.


METAR-TAF: